Weather History for Park Rapids, MN

Change the Weather History Date:

Wednesday, February 13, 2013

  Actual Average Record
Temperature  
Mean Temperature 21 °F -  
Max Temperature 32 °F 24 °F 45 °F (1967)
Min Temperature 10 °F 1 °F -32 °F (1951)
Degree Days  
Heating Degree Days 44    
Moisture  
Dew Point 19 °F    
Average Humidity 85    
Maximum Humidity 100    
Minimum Humidity 69    
Precipitation  
Precipitation 0.00 in - - ()
Sea Level Pressure  
Sea Level Pressure 29.67 in    
Wind  
Wind Speed 3 mph (West)    
Max Wind Speed 8 mph    
Max Gust Speed -    
Visibility 7 miles    
Events Fog    
Averages and records for this station are not official NWS values.
T = Trace of Precipitation, MM = Missing Value Source: NWS Daily Summary

Daily Weather History Graph

Daily Weather History Graph

Search for Another Location

Airport:

Trip Planner

Search our weather history database for the weather conditions in past years. The results will help you decide how hot, cold, wet, or windy it might be!

Date:

Astronomy

Feb. 13, 2013 Rise Set
Actual Time 7:27 AM CST 5:42 PM CST
Civil Twilight 6:55 AM CST 6:13 PM CST
Nautical Twilight 6:20 AM CST 6:49 PM CST
Astronomical Twilight 5:45 AM CST 7:24 PM CST
Moon 8:39 AM CST (2/13) 10:05 PM CST (2/13)
Length of Visible Light 11h 17m
Length of Day
10h 15m
Waxing Crescent, 14% of the Moon is Illuminated
Feb 13
Waxing Crescent
Feb 17
First Quarter
Feb 25
Full
Mar 4
Last Quarter
Mar 11
New

Hourly Weather History & Observations

Time (CST) Temp. Windchill Dew Point Humidity Pressure Visibility Wind Dir Wind Speed Gust Speed Precip Events Conditions
12:53 AM 21.9 °F 15.7 °F 18.0 °F 85% 29.76 in 10.0 mi West 4.6 mph - N/A   Overcast
1:53 AM 17.1 °F 11.7 °F 12.9 °F 84% 29.75 in 8.0 mi SW 3.5 mph - N/A   Overcast
2:53 AM 19.9 °F 14.9 °F 17.1 °F 89% 29.75 in 9.0 mi West 3.5 mph - N/A   Overcast
3:53 AM 21.0 °F 16.2 °F 18.0 °F 88% 29.73 in 9.0 mi SW 3.5 mph - N/A   Overcast
4:53 AM 21.9 °F 17.2 °F 19.0 °F 89% 29.72 in 10.0 mi WSW 3.5 mph - N/A   Overcast
5:53 AM 16.0 °F 8.8 °F 12.9 °F 88% 29.71 in 8.0 mi SW 4.6 mph - N/A   Clear
6:43 AM 14.0 °F 6.5 °F 10.4 °F 86% 29.63 in 2.0 mi SW 4.6 mph - N/A   Clear
6:53 AM 12.0 °F 2.7 °F 10.9 °F 95% 29.71 in 1.5 mi SW 5.8 mph - N/A   Clear
7:22 AM 10.4 °F 0.8 °F 8.6 °F 92% 29.62 in 0.2 mi SW 5.8 mph - N/A Fog Light Freezing Fog
7:53 AM 15.1 °F - 12.0 °F 88% 29.70 in 0.8 mi Calm Calm - N/A   Clear
8:02 AM 15.8 °F - 12.2 °F 86% 29.61 in 1.8 mi Calm Calm - N/A   Clear
8:23 AM 15.8 °F - 12.2 °F 86% 29.62 in 0.2 mi Calm Calm - N/A Fog Light Freezing Fog
8:41 AM 17.6 °F - 15.8 °F 93% 29.61 in 1.0 mi Calm Calm - N/A   Clear
8:53 AM 17.1 °F 10.0 °F 17.1 °F 100% 29.70 in 0.8 mi SW 4.6 mph - N/A   Clear
9:05 AM 17.6 °F 10.7 °F 17.6 °F 100% 29.61 in 2.0 mi SW 4.6 mph - N/A   Clear
9:15 AM 19.4 °F - 17.6 °F 93% 29.61 in 3.0 mi Calm Calm - N/A   Clear
9:53 AM 21.0 °F - 19.9 °F 96% 29.68 in 5.0 mi Calm Calm - N/A   Clear
10:53 AM 25.0 °F - 21.0 °F 85% 29.67 in 6.0 mi Calm Calm - N/A   Scattered Clouds
11:53 AM 28.0 °F - 21.9 °F 78% 29.67 in 9.0 mi Calm Calm - N/A   Scattered Clouds
12:53 PM 30.0 °F - 23.0 °F 75% 29.64 in 10.0 mi Calm Calm - N/A   Mostly Cloudy
1:53 PM 32.0 °F - 23.0 °F 69% 29.63 in 10.0 mi Calm Calm - N/A   Mostly Cloudy
2:53 PM 32.0 °F - 24.1 °F 73% 29.62 in 10.0 mi Calm Calm - N/A   Overcast
3:53 PM 32.0 °F - 24.1 °F 73% 29.62 in 10.0 mi Calm Calm - N/A   Overcast
4:53 PM 30.9 °F - 24.1 °F 76% 29.62 in 10.0 mi Calm Calm - N/A   Overcast
5:53 PM 30.0 °F - 24.1 °F 79% 29.64 in 10.0 mi Calm Calm - N/A   Overcast
6:21 PM 30.2 °F - 24.8 °F 80% 29.57 in 10.0 mi Calm Calm - N/A   Overcast
6:53 PM 30.0 °F 26.5 °F 25.0 °F 82% 29.66 in 8.0 mi NE 3.5 mph - N/A   Overcast
7:53 PM 30.0 °F 25.2 °F 24.1 °F 79% 29.68 in 10.0 mi NNE 4.6 mph - N/A   Overcast
8:51 PM 30.2 °F 24.3 °F 24.8 °F 80% 29.62 in 10.0 mi North 5.8 mph - N/A   Overcast
8:53 PM 30.0 °F 24.1 °F 24.1 °F 79% 29.69 in 10.0 mi North 5.8 mph - N/A   Overcast
9:53 PM 28.0 °F 20.0 °F 21.9 °F 78% 29.70 in 10.0 mi North 8.1 mph - N/A   Scattered Clouds
10:53 PM 25.0 °F 17.1 °F 21.0 °F 85% 29.72 in 10.0 mi North 6.9 mph - N/A   Partly Cloudy
11:53 PM 21.9 °F 15.7 °F 19.0 °F 89% 29.73 in 10.0 mi NNW 4.6 mph - N/A   Clear